Location: Doschendorf
(50.0069°N, 11.0602°E)
Time: 21:44:24
(UTC+00:00)

Cosmos 1805 Rocket - Pass Details

Date: 17 November 2019
Orbit: 606 x 629 km, 82.5° (Epoch: 13 December)

Event Time Altitude Azimuth Distance (km) Brightness Sun altitude
Rises 16:12:42 0° 353° (N) 2,882 6.8 -7.1°
Reaches altitude 10° 16:14:58 10° 358° (N) 1,975 6.0 -7.4°
Maximum altitude 16:19:15 53° 76° (ENE) 757 3.7 -8.1°
Drops below altitude 10° 16:23:31 10° 154° (SSE) 1,971 6.1 -8.7°
Sets 16:25:47 0° 159° (SSE) 2,875 7.0 -9.1°
